Weather in Alushkovo

Russia / Smolensk Oblast     54°26′29″N   31°32′09″E
temp.,
°C
wind,
m/s
gust,
m/s
humid.,
%
clouds,
%
prec.,
mm/h
press.,
hPa
HPBL,
m
16 may, sun
sun1600:00+11ssw4997100 0.1 1008228
03:00+10ssw389877 0.1 1009187
06:00+10ssw369880 0.0 1010177
09:00+15sw348459 0.0 1011442
12:00+18sw346747 0.3 10111294
15:00+19sw3461100 0.7 10121517
18:00+19sse236685 0.1 1012735
21:00+14sse3385100 0.3 101230
17 may, mon
mon1700:00+12se22908 0.0 101223
03:00+12ese359299 0.0 101284
06:00+12ese3892100 0.0 1012162
09:00+16ese5879100 0.0 1011370
12:00+20e4667100 0.0 1009857
15:00+23e5962100 0.0 10071607
18:00+23ese5106898 0.3 1004667
21:00+19ese5137416 0.3 1003372
18 may, tue
tue1800:00+16se4129098 0.0 1003292
03:00+16ese51395100 0.0 1002390
06:00+16ese61294100 0.0 1001361
09:00+18se7138299 0.0 1000997
12:00+19sse81377100 0.2 10011366
15:00+16sse71288100 1.4 1001868
18:00+16s51089100 0.8 1001762
21:00+14sse3595100 0.9 1002127
19 may, wed
wed1900:00+14s1297100 1.4 100277
03:00+13se259894 1.6 1002134
06:00+12ese2597100 0.0 1002165
09:00+15ese359399 0.0 1002422
12:00+16se2489100 0.3 1002482
15:00+15se3691100 3.6 1002293
18:00+15ssw369095 1.4 1001396
21:00+13ssw2395100 1.7 100171
20 may, thu
thu2000:00+12sw3699100 0.3 1000246
03:00+11s4898100 1.2 1000371
06:00+11ssw3598100 0.4 999343
09:00+9wnw91595100 1.1 1001883
12:00+9wnw81391100 3.1 10061337
15:00+10w61289100 3.2 10091042
18:00+13wnw59764 0.1 10101138
21:00+10sw22902 0.2 101219